owner,sensor,date,latitude,longitude,air_temperature,qcFlag 
DISL,ioos:station:DISL:MHPA:1,2010-04-01T00:00:00Z,30.6671,-87.9365,17.41,1111122 
DISL,ioos:station:DISL:MHPA:1,2010-04-01T00:30:00Z,30.6671,-87.9365,17.46,1111122 
DISL,ioos:station:DISL:MHPA:1,2010-04-01T01:00:00Z,30.6671,-87.9365,17.21,1111122 
DISL,ioos:station:DISL:MHPA:1,2010-04-01T01:30:00Z,30.6671,-87.9365,16.94,1111122 
DISL,ioos:station:DISL:MHPA:1,2010-04-01T02:00:00Z,30.6671,-87.9365,16.83,1111122 
DISL,ioos:station:DISL:MHPA:1,2010-04-01T02:30:00Z,30.6671,-87.9365,16.77,1111122 
DISL,ioos:station:DISL:MHPA:1,2010-04-01T03:00:00Z,30.6671,-87.9365,16.72,1111122 
DISL,ioos:station:DISL:MHPA:1,2010-04-01T03:30:00Z,30.6671,-87.9365,16.69,1111122 
DISL,ioos:station:DISL:MHPA:1,2010-04-01T04:00:00Z,30.6671,-87.9365,16.64,1111122 
DISL,ioos:station:DISL:MHPA:1,2010-04-01T04:30:00Z,30.6671,-87.9365,16.6,1111122 
DISL,ioos:station:DISL:MHPA:1,2010-04-01T05:00:00Z,30.6671,-87.9365,16.59,1111122 
DISL,ioos:station:DISL:MHPA:1,2010-04-01T05:30:00Z,30.6671,-87.9365,16.61,1111122 
DISL,ioos:station:DISL:MHPA:1,2010-04-01T06:00:00Z,30.6671,-87.9365,16.5,1111122 
DISL,ioos:station:DISL:MHPA:1,2010-04-01T06:30:00Z,30.6671,-87.9365,16.45,1111122 
DISL,ioos:station:DISL:MHPA:1,2010-04-01T07:00:00Z,30.6671,-87.9365,16.39,1111122 
DISL,ioos:station:DISL:MHPA:1,2010-04-01T07:30:00Z,30.6671,-87.9365,16.32,1111122 
DISL,ioos:station:DISL:MHPA:1,2010-04-01T08:00:00Z,30.6671,-87.9365,16.12,1111122 
DISL,ioos:station:DISL:MHPA:1,2010-04-01T08:30:00Z,30.6671,-87.9365,16.09,1111122 
DISL,ioos:station:DISL:MHPA:1,2010-04-01T09:00:00Z,30.6671,-87.9365,16.02,1111122 
DISL,ioos:station:DISL:MHPA:1,2010-04-01T09:30:00Z,30.6671,-87.9365,16.02,1111122 
DISL,ioos:station:DISL:MHPA:1,2010-04-01T10:00:00Z,30.6671,-87.9365,16.06,1111122 
DISL,ioos:station:DISL:MHPA:1,2010-04-01T10:30:00Z,30.6671,-87.9365,16.03,1111122 
DISL,ioos:station:DISL:MHPA:1,2010-04-01T11:00:00Z,30.6671,-87.9365,13.56,1111122 
DISL,ioos:station:DISL:MHPA:1,2010-04-01T11:30:00Z,30.6671,-87.9365,12.4,1111122 
DISL,ioos:station:DISL:MHPA:1,2010-04-01T12:00:00Z,30.6671,-87.9365,11.4,1111122 
DISL,ioos:station:DISL:MHPA:1,2010-04-01T12:30:00Z,30.6671,-87.9365,13.9,1111122 
DISL,ioos:station:DISL:MHPA:1,2010-04-01T13:00:00Z,30.6671,-87.9365,16.66,1111122 
DISL,ioos:station:DISL:MHPA:1,2010-04-01T13:30:00Z,30.6671,-87.9365,17.63,1111122 
DISL,ioos:station:DISL:MHPA:1,2010-04-01T14:00:00Z,30.6671,-87.9365,16.41,1111122 
DISL,ioos:station:DISL:MHPA:1,2010-04-01T14:30:00Z,30.6671,-87.9365,17.23,1111122 
DISL,ioos:station:DISL:MHPA:1,2010-04-01T15:00:00Z,30.6671,-87.9365,16.93,1111122 
DISL,ioos:station:DISL:MHPA:1,2010-04-01T15:30:00Z,30.6671,-87.9365,16.75,1111122 
DISL,ioos:station:DISL:MHPA:1,2010-04-01T16:00:00Z,30.6671,-87.9365,16.97,1111122 
DISL,ioos:station:DISL:MHPA:1,2010-04-01T16:30:00Z,30.6671,-87.9365,17.18,1111122 
DISL,ioos:station:DISL:MHPA:1,2010-04-01T17:00:00Z,30.6671,-87.9365,17.38,1111122 
DISL,ioos:station:DISL:MHPA:1,2010-04-01T17:30:00Z,30.6671,-87.9365,17.59,1111122 
DISL,ioos:station:DISL:MHPA:1,2010-04-01T18:00:00Z,30.6671,-87.9365,17.88,1111122 
DISL,ioos:station:DISL:MHPA:1,2010-04-01T18:30:00Z,30.6671,-87.9365,18.04,1111122 
DISL,ioos:station:DISL:MHPA:1,2010-04-01T19:00:00Z,30.6671,-87.9365,18.12,1111122 
DISL,ioos:station:DISL:MHPA:1,2010-04-01T19:30:00Z,30.6671,-87.9365,18.24,1111122 
DISL,ioos:station:DISL:MHPA:1,2010-04-01T20:00:00Z,30.6671,-87.9365,18.37,1111122 
DISL,ioos:station:DISL:MHPA:1,2010-04-01T20:30:00Z,30.6671,-87.9365,18.46,1111122 
DISL,ioos:station:DISL:MHPA:1,2010-04-01T21:00:00Z,30.6671,-87.9365,18.46,1111122 
DISL,ioos:station:DISL:MHPA:1,2010-04-01T21:30:00Z,30.6671,-87.9365,18.46,1111122 
DISL,ioos:station:DISL:MHPA:1,2010-04-01T22:00:00Z,30.6671,-87.9365,18.45,1111122 
DISL,ioos:station:DISL:MHPA:1,2010-04-01T22:30:00Z,30.6671,-87.9365,18.43,1111122 
DISL,ioos:station:DISL:MHPA:1,2010-04-01T23:00:00Z,30.6671,-87.9365,18.43,1111122 
DISL,ioos:station:DISL:MHPA:1,2010-04-01T23:30:00Z,30.6671,-87.9365,18.35,1111122 
DISL,ioos:station:DISL:MHPA:1,2010-04-02T00:00:00Z,30.6671,-87.9365,17.99,1111122 
DISL,ioos:station:DISL:MHPA:1,2010-04-02T00:30:00Z,30.6671,-87.9365,17.9,1111122 
DISL,ioos:station:DISL:MHPA:1,2010-04-02T01:00:00Z,30.6671,-87.9365,17.75,1111122 
DISL,ioos:station:DISL:MHPA:1,2010-04-02T01:30:00Z,30.6671,-87.9365,17.61,1111122 
DISL,ioos:station:DISL:MHPA:1,2010-04-02T02:00:00Z,30.6671,-87.9365,17.54,1111122 
DISL,ioos:station:DISL:MHPA:1,2010-04-02T02:30:00Z,30.6671,-87.9365,17.47,1111122 
DISL,ioos:station:DISL:MHPA:1,2010-04-02T03:00:00Z,30.6671,-87.9365,17.26,1111122 
DISL,ioos:station:DISL:MHPA:1,2010-04-02T03:30:00Z,30.6671,-87.9365,15.66,1111122 
DISL,ioos:station:DISL:MHPA:1,2010-04-02T04:00:00Z,30.6671,-87.9365,15.51,1111122 
DISL,ioos:station:DISL:MHPA:1,2010-04-02T04:30:00Z,30.6671,-87.9365,15.07,1111122 
DISL,ioos:station:DISL:MHPA:1,2010-04-02T05:00:00Z,30.6671,-87.9365,14.74,1111122 
DISL,ioos:station:DISL:MHPA:1,2010-04-02T05:30:00Z,30.6671,-87.9365,14.87,1111122 
DISL,ioos:station:DISL:MHPA:1,2010-04-02T06:00:00Z,30.6671,-87.9365,14.93,1111122 
DISL,ioos:station:DISL:MHPA:1,2010-04-02T06:30:00Z,30.6671,-87.9365,14.42,1111122 
DISL,ioos:station:DISL:MHPA:1,2010-04-02T07:00:00Z,30.6671,-87.9365,14.23,1111122 
DISL,ioos:station:DISL:MHPA:1,2010-04-02T07:30:00Z,30.6671,-87.9365,13.87,1111122 
DISL,ioos:station:DISL:MHPA:1,2010-04-02T08:00:00Z,30.6671,-87.9365,14.46,1111122 
DISL,ioos:station:DISL:MHPA:1,2010-04-02T08:30:00Z,30.6671,-87.9365,14.31,1111122 
DISL,ioos:station:DISL:MHPA:1,2010-04-02T09:00:00Z,30.6671,-87.9365,14.28,1111122 
DISL,ioos:station:DISL:MHPA:1,2010-04-02T09:30:00Z,30.6671,-87.9365,14.29,1111122 
DISL,ioos:station:DISL:MHPA:1,2010-04-02T10:00:00Z,30.6671,-87.9365,14.43,1111122 
DISL,ioos:station:DISL:MHPA:1,2010-04-02T10:30:00Z,30.6671,-87.9365,14.45,1111122 
DISL,ioos:station:DISL:MHPA:1,2010-04-02T11:00:00Z,30.6671,-87.9365,14.43,1111122 
DISL,ioos:station:DISL:MHPA:1,2010-04-02T11:30:00Z,30.6671,-87.9365,14.72,1111122 
DISL,ioos:station:DISL:MHPA:1,2010-04-02T12:00:00Z,30.6671,-87.9365,14.38,1111122 
DISL,ioos:station:DISL:MHPA:1,2010-04-02T12:30:00Z,30.6671,-87.9365,14.85,1111122 
DISL,ioos:station:DISL:MHPA:1,2010-04-02T13:00:00Z,30.6671,-87.9365,15.37,1111122 
DISL,ioos:station:DISL:MHPA:1,2010-04-02T13:30:00Z,30.6671,-87.9365,15.83,1111122 
DISL,ioos:station:DISL:MHPA:1,2010-04-02T14:00:00Z,30.6671,-87.9365,16.76,1111122 
DISL,ioos:station:DISL:MHPA:1,2010-04-02T14:30:00Z,30.6671,-87.9365,17.73,1111122 
DISL,ioos:station:DISL:MHPA:1,2010-04-02T15:00:00Z,30.6671,-87.9365,17.74,1111122 
DISL,ioos:station:DISL:MHPA:1,2010-04-02T15:30:00Z,30.6671,-87.9365,17.94,1111122 
DISL,ioos:station:DISL:MHPA:1,2010-04-02T16:00:00Z,30.6671,-87.9365,17.91,1111122 
DISL,ioos:station:DISL:MHPA:1,2010-04-02T16:30:00Z,30.6671,-87.9365,17.9,1111122 
DISL,ioos:station:DISL:MHPA:1,2010-04-02T17:00:00Z,30.6671,-87.9365,17.99,1111122 
DISL,ioos:station:DISL:MHPA:1,2010-04-02T17:30:00Z,30.6671,-87.9365,18.15,1111122 
DISL,ioos:station:DISL:MHPA:1,2010-04-02T18:00:00Z,30.6671,-87.9365,18.3,1111122 
DISL,ioos:station:DISL:MHPA:1,2010-04-02T18:30:00Z,30.6671,-87.9365,18.3,1111122 
DISL,ioos:station:DISL:MHPA:1,2010-04-02T19:00:00Z,30.6671,-87.9365,18.38,1111122 
DISL,ioos:station:DISL:MHPA:1,2010-04-02T19:30:00Z,30.6671,-87.9365,18.68,1111122 
DISL,ioos:station:DISL:MHPA:1,2010-04-02T20:00:00Z,30.6671,-87.9365,18.72,1111122 
DISL,ioos:station:DISL:MHPA:1,2010-04-02T20:30:00Z,30.6671,-87.9365,19.09,1111122 
DISL,ioos:station:DISL:MHPA:1,2010-04-02T21:00:00Z,30.6671,-87.9365,19.7,1111122 
DISL,ioos:station:DISL:MHPA:1,2010-04-02T21:30:00Z,30.6671,-87.9365,19.53,1111122 
DISL,ioos:station:DISL:MHPA:1,2010-04-02T22:00:00Z,30.6671,-87.9365,19.7,1111122 
DISL,ioos:station:DISL:MHPA:1,2010-04-02T22:30:00Z,30.6671,-87.9365,21.41,1111122 
DISL,ioos:station:DISL:MHPA:1,2010-04-02T23:00:00Z,30.6671,-87.9365,20.4,1111122 
DISL,ioos:station:DISL:MHPA:1,2010-04-02T23:30:00Z,30.6671,-87.9365,20.81,1111122 
DISL,ioos:station:DISL:MHPA:1,2010-04-03T00:00:00Z,30.6671,-87.9365,20.26,1111122 
DISL,ioos:station:DISL:MHPA:1,2010-04-03T00:30:00Z,30.6671,-87.9365,19.74,1111122 
DISL,ioos:station:DISL:MHPA:1,2010-04-03T01:00:00Z,30.6671,-87.9365,19.28,1111122 
DISL,ioos:station:DISL:MHPA:1,2010-04-03T01:30:00Z,30.6671,-87.9365,18.9,1111122 
DISL,ioos:station:DISL:MHPA:1,2010-04-03T02:00:00Z,30.6671,-87.9365,18.41,1111122 
DISL,ioos:station:DISL:MHPA:1,2010-04-03T02:30:00Z,30.6671,-87.9365,17.97,1111122 
DISL,ioos:station:DISL:MHPA:1,2010-04-03T03:00:00Z,30.6671,-87.9365,17.67,1111122 
DISL,ioos:station:DISL:MHPA:1,2010-04-03T03:30:00Z,30.6671,-87.9365,17.57,1111122 
DISL,ioos:station:DISL:MHPA:1,2010-04-03T04:00:00Z,30.6671,-87.9365,17.51,1111122 
DISL,ioos:station:DISL:MHPA:1,2010-04-03T04:30:00Z,30.6671,-87.9365,17.49,1111122 
DISL,ioos:station:DISL:MHPA:1,2010-04-03T05:00:00Z,30.6671,-87.9365,17.47,1111122 
DISL,ioos:station:DISL:MHPA:1,2010-04-03T05:30:00Z,30.6671,-87.9365,17.6,1111122 
DISL,ioos:station:DISL:MHPA:1,2010-04-03T06:00:00Z,30.6671,-87.9365,17.65,1111122 
DISL,ioos:station:DISL:MHPA:1,2010-04-03T06:30:00Z,30.6671,-87.9365,17.65,1111122 
DISL,ioos:station:DISL:MHPA:1,2010-04-03T07:00:00Z,30.6671,-87.9365,17.49,1111122 
DISL,ioos:station:DISL:MHPA:1,2010-04-03T07:30:00Z,30.6671,-87.9365,17.51,1111122 
DISL,ioos:station:DISL:MHPA:1,2010-04-03T08:00:00Z,30.6671,-87.9365,17.43,1111122 
DISL,ioos:station:DISL:MHPA:1,2010-04-03T08:30:00Z,30.6671,-87.9365,17.53,1111122 
DISL,ioos:station:DISL:MHPA:1,2010-04-03T09:00:00Z,30.6671,-87.9365,17.68,1111122 
DISL,ioos:station:DISL:MHPA:1,2010-04-03T09:30:00Z,30.6671,-87.9365,17.35,1111122 
DISL,ioos:station:DISL:MHPA:1,2010-04-03T10:00:00Z,30.6671,-87.9365,17.49,1111122 
DISL,ioos:station:DISL:MHPA:1,2010-04-03T10:30:00Z,30.6671,-87.9365,17.47,1111122 
DISL,ioos:station:DISL:MHPA:1,2010-04-03T11:00:00Z,30.6671,-87.9365,17.35,1111122 
DISL,ioos:station:DISL:MHPA:1,2010-04-03T11:30:00Z,30.6671,-87.9365,17.36,1111122 
DISL,ioos:station:DISL:MHPA:1,2010-04-03T12:00:00Z,30.6671,-87.9365,17.31,1111122 
DISL,ioos:station:DISL:MHPA:1,2010-04-03T12:30:00Z,30.6671,-87.9365,18.13,1111122 
DISL,ioos:station:DISL:MHPA:1,2010-04-03T13:00:00Z,30.6671,-87.9365,18.06,1111122 
DISL,ioos:station:DISL:MHPA:1,2010-04-03T13:30:00Z,30.6671,-87.9365,19.26,1111122 
DISL,ioos:station:DISL:MHPA:1,2010-04-03T14:00:00Z,30.6671,-87.9365,19.93,1111122 
DISL,ioos:station:DISL:MHPA:1,2010-04-03T14:30:00Z,30.6671,-87.9365,19.62,1111122 
DISL,ioos:station:DISL:MHPA:1,2010-04-03T15:00:00Z,30.6671,-87.9365,19.44,1111122 
DISL,ioos:station:DISL:MHPA:1,2010-04-03T15:30:00Z,30.6671,-87.9365,19.14,1111122 
DISL,ioos:station:DISL:MHPA:1,2010-04-03T16:00:00Z,30.6671,-87.9365,19.37,1111122 
DISL,ioos:station:DISL:MHPA:1,2010-04-03T16:30:00Z,30.6671,-87.9365,19.69,1111122 
DISL,ioos:station:DISL:MHPA:1,2010-04-03T17:00:00Z,30.6671,-87.9365,20.46,1111122 
DISL,ioos:station:DISL:MHPA:1,2010-04-03T17:30:00Z,30.6671,-87.9365,21.28,1111122 
DISL,ioos:station:DISL:MHPA:1,2010-04-03T18:00:00Z,30.6671,-87.9365,21.1,1111122 
DISL,ioos:station:DISL:MHPA:1,2010-04-03T18:30:00Z,30.6671,-87.9365,21.18,1111122 
DISL,ioos:station:DISL:MHPA:1,2010-04-03T19:00:00Z,30.6671,-87.9365,20.73,1111122 
DISL,ioos:station:DISL:MHPA:1,2010-04-03T19:30:00Z,30.6671,-87.9365,20.16,1111122 
DISL,ioos:station:DISL:MHPA:1,2010-04-03T20:00:00Z,30.6671,-87.9365,20.37,1111122 
DISL,ioos:station:DISL:MHPA:1,2010-04-03T20:30:00Z,30.6671,-87.9365,20.5,1111122 
DISL,ioos:station:DISL:MHPA:1,2010-04-03T21:00:00Z,30.6671,-87.9365,20.49,1111122 
DISL,ioos:station:DISL:MHPA:1,2010-04-03T21:30:00Z,30.6671,-87.9365,20.31,1111122 
DISL,ioos:station:DISL:MHPA:1,2010-04-03T22:00:00Z,30.6671,-87.9365,20.24,1111122 
DISL,ioos:station:DISL:MHPA:1,2010-04-03T22:30:00Z,30.6671,-87.9365,20.23,1111122 
DISL,ioos:station:DISL:MHPA:1,2010-04-03T23:00:00Z,30.6671,-87.9365,20.31,1111122 
DISL,ioos:station:DISL:MHPA:1,2010-04-03T23:30:00Z,30.6671,-87.9365,20.25,1111122 
DISL,ioos:station:DISL:MHPA:1,2010-04-04T00:00:00Z,30.6671,-87.9365,20.58,1111122 
DISL,ioos:station:DISL:MHPA:1,2010-04-04T00:30:00Z,30.6671,-87.9365,20.37,1111122 
DISL,ioos:station:DISL:MHPA:1,2010-04-04T01:00:00Z,30.6671,-87.9365,20.52,1111122 
DISL,ioos:station:DISL:MHPA:1,2010-04-04T01:30:00Z,30.6671,-87.9365,20.49,1111122 
DISL,ioos:station:DISL:MHPA:1,2010-04-04T02:00:00Z,30.6671,-87.9365,20.13,1111122 
DISL,ioos:station:DISL:MHPA:1,2010-04-04T02:30:00Z,30.6671,-87.9365,19.73,1111122 
DISL,ioos:station:DISL:MHPA:1,2010-04-04T03:00:00Z,30.6671,-87.9365,19.37,1111122 
DISL,ioos:station:DISL:MHPA:1,2010-04-04T03:30:00Z,30.6671,-87.9365,19.06,1111122 
DISL,ioos:station:DISL:MHPA:1,2010-04-04T04:00:00Z,30.6671,-87.9365,18.72,1111122 
DISL,ioos:station:DISL:MHPA:1,2010-04-04T04:30:00Z,30.6671,-87.9365,18.33,1111122 
DISL,ioos:station:DISL:MHPA:1,2010-04-04T05:00:00Z,30.6671,-87.9365,18.17,1111122 
DISL,ioos:station:DISL:MHPA:1,2010-04-04T05:30:00Z,30.6671,-87.9365,17.98,1111122 
DISL,ioos:station:DISL:MHPA:1,2010-04-04T06:00:00Z,30.6671,-87.9365,17.9,1111122 
DISL,ioos:station:DISL:MHPA:1,2010-04-04T06:30:00Z,30.6671,-87.9365,17.68,1111122 
DISL,ioos:station:DISL:MHPA:1,2010-04-04T07:00:00Z,30.6671,-87.9365,17.56,1111122 
DISL,ioos:station:DISL:MHPA:1,2010-04-04T07:30:00Z,30.6671,-87.9365,17.52,1111122 
DISL,ioos:station:DISL:MHPA:1,2010-04-04T08:00:00Z,30.6671,-87.9365,17.36,1111122 
DISL,ioos:station:DISL:MHPA:1,2010-04-04T08:30:00Z,30.6671,-87.9365,16.99,1111122 
DISL,ioos:station:DISL:MHPA:1,2010-04-04T09:00:00Z,30.6671,-87.9365,17.38,1111122 
DISL,ioos:station:DISL:MHPA:1,2010-04-04T09:30:00Z,30.6671,-87.9365,17.52,1111122 
DISL,ioos:station:DISL:MHPA:1,2010-04-04T10:00:00Z,30.6671,-87.9365,18.1,1111122 
DISL,ioos:station:DISL:MHPA:1,2010-04-04T10:30:00Z,30.6671,-87.9365,18.34,1111122 
DISL,ioos:station:DISL:MHPA:1,2010-04-04T11:00:00Z,30.6671,-87.9365,18.35,1111122 
DISL,ioos:station:DISL:MHPA:1,2010-04-04T11:30:00Z,30.6671,-87.9365,18.29,1111122 
DISL,ioos:station:DISL:MHPA:1,2010-04-04T12:00:00Z,30.6671,-87.9365,18.29,1111122 
DISL,ioos:station:DISL:MHPA:1,2010-04-04T12:30:00Z,30.6671,-87.9365,18.37,1111122 
DISL,ioos:station:DISL:MHPA:1,2010-04-04T13:00:00Z,30.6671,-87.9365,18.2,1111122 
DISL,ioos:station:DISL:MHPA:1,2010-04-04T13:30:00Z,30.6671,-87.9365,18.22,1111122 
DISL,ioos:station:DISL:MHPA:1,2010-04-04T14:00:00Z,30.6671,-87.9365,18.23,1111122 
DISL,ioos:station:DISL:MHPA:1,2010-04-04T14:30:00Z,30.6671,-87.9365,18.79,1111122 
DISL,ioos:station:DISL:MHPA:1,2010-04-04T15:00:00Z,30.6671,-87.9365,19.28,1111122 
DISL,ioos:station:DISL:MHPA:1,2010-04-04T15:30:00Z,30.6671,-87.9365,19.72,1111122 
DISL,ioos:station:DISL:MHPA:1,2010-04-04T16:00:00Z,30.6671,-87.9365,19.42,1111122 
DISL,ioos:station:DISL:MHPA:1,2010-04-04T16:30:00Z,30.6671,-87.9365,18.96,1111122 
DISL,ioos:station:DISL:MHPA:1,2010-04-04T17:00:00Z,30.6671,-87.9365,19.37,1111122 
DISL,ioos:station:DISL:MHPA:1,2010-04-04T17:30:00Z,30.6671,-87.9365,19.39,1111122 
DISL,ioos:station:DISL:MHPA:1,2010-04-04T18:00:00Z,30.6671,-87.9365,19.33,1111122 
DISL,ioos:station:DISL:MHPA:1,2010-04-04T18:30:00Z,30.6671,-87.9365,19.39,1111122 
DISL,ioos:station:DISL:MHPA:1,2010-04-04T19:00:00Z,30.6671,-87.9365,19.58,1111122 
DISL,ioos:station:DISL:MHPA:1,2010-04-04T19:30:00Z,30.6671,-87.9365,19.79,1111122 
DISL,ioos:station:DISL:MHPA:1,2010-04-04T20:00:00Z,30.6671,-87.9365,19.81,1111122 
DISL,ioos:station:DISL:MHPA:1,2010-04-04T20:30:00Z,30.6671,-87.9365,19.77,1111122 
DISL,ioos:station:DISL:MHPA:1,2010-04-04T21:00:00Z,30.6671,-87.9365,19.72,1111122 
DISL,ioos:station:DISL:MHPA:1,2010-04-04T21:30:00Z,30.6671,-87.9365,19.72,1111122 
DISL,ioos:station:DISL:MHPA:1,2010-04-04T22:00:00Z,30.6671,-87.9365,19.65,1111122 
DISL,ioos:station:DISL:MHPA:1,2010-04-04T22:30:00Z,30.6671,-87.9365,19.72,1111122 
DISL,ioos:station:DISL:MHPA:1,2010-04-04T23:00:00Z,30.6671,-87.9365,19.62,1111122 
DISL,ioos:station:DISL:MHPA:1,2010-04-04T23:30:00Z,30.6671,-87.9365,19.38,1111122 
DISL,ioos:station:DISL:MHPA:1,2010-04-05T00:00:00Z,30.6671,-87.9365,18.97,1111122 
DISL,ioos:station:DISL:MHPA:1,2010-04-05T00:30:00Z,30.6671,-87.9365,18.79,1111122 
DISL,ioos:station:DISL:MHPA:1,2010-04-05T01:00:00Z,30.6671,-87.9365,18.61,1111122 
DISL,ioos:station:DISL:MHPA:1,2010-04-05T01:30:00Z,30.6671,-87.9365,18.49,1111122 
DISL,ioos:station:DISL:MHPA:1,2010-04-05T02:00:00Z,30.6671,-87.9365,18.21,1111122 
DISL,ioos:station:DISL:MHPA:1,2010-04-05T02:30:00Z,30.6671,-87.9365,18.15,1111122 
DISL,ioos:station:DISL:MHPA:1,2010-04-05T03:00:00Z,30.6671,-87.9365,17.93,1111122 
DISL,ioos:station:DISL:MHPA:1,2010-04-05T03:30:00Z,30.6671,-87.9365,18.02,1111122 
DISL,ioos:station:DISL:MHPA:1,2010-04-05T04:00:00Z,30.6671,-87.9365,17.98,1111122 
DISL,ioos:station:DISL:MHPA:1,2010-04-05T04:30:00Z,30.6671,-87.9365,18.08,1111122 
DISL,ioos:station:DISL:MHPA:1,2010-04-05T05:00:00Z,30.6671,-87.9365,18.0,1111122 
DISL,ioos:station:DISL:MHPA:1,2010-04-05T05:30:00Z,30.6671,-87.9365,17.96,1111122 
DISL,ioos:station:DISL:MHPA:1,2010-04-05T06:00:00Z,30.6671,-87.9365,18.14,1111122 
DISL,ioos:station:DISL:MHPA:1,2010-04-05T06:30:00Z,30.6671,-87.9365,17.68,1111122 
DISL,ioos:station:DISL:MHPA:1,2010-04-05T07:00:00Z,30.6671,-87.9365,17.71,1111122 
DISL,ioos:station:DISL:MHPA:1,2010-04-05T07:30:00Z,30.6671,-87.9365,17.94,1111122 
DISL,ioos:station:DISL:MHPA:1,2010-04-05T08:00:00Z,30.6671,-87.9365,17.54,1111122 
DISL,ioos:station:DISL:MHPA:1,2010-04-05T08:30:00Z,30.6671,-87.9365,16.99,1111122 
DISL,ioos:station:DISL:MHPA:1,2010-04-05T09:00:00Z,30.6671,-87.9365,16.78,1111122 
DISL,ioos:station:DISL:MHPA:1,2010-04-05T09:30:00Z,30.6671,-87.9365,16.71,1111122 
DISL,ioos:station:DISL:MHPA:1,2010-04-05T10:00:00Z,30.6671,-87.9365,16.63,1111122 
DISL,ioos:station:DISL:MHPA:1,2010-04-05T10:30:00Z,30.6671,-87.9365,16.51,1111122 
DISL,ioos:station:DISL:MHPA:1,2010-04-05T11:00:00Z,30.6671,-87.9365,16.17,1111122 
DISL,ioos:station:DISL:MHPA:1,2010-04-05T11:30:00Z,30.6671,-87.9365,16.12,1111122 
DISL,ioos:station:DISL:MHPA:1,2010-04-05T12:00:00Z,30.6671,-87.9365,15.5,1111122 
DISL,ioos:station:DISL:MHPA:1,2010-04-05T12:30:00Z,30.6671,-87.9365,15.06,1111122 
DISL,ioos:station:DISL:MHPA:1,2010-04-05T13:00:00Z,30.6671,-87.9365,14.94,1111122 
DISL,ioos:station:DISL:MHPA:1,2010-04-05T13:30:00Z,30.6671,-87.9365,15.52,1111122 
DISL,ioos:station:DISL:MHPA:1,2010-04-05T14:00:00Z,30.6671,-87.9365,16.26,1111122 
DISL,ioos:station:DISL:MHPA:1,2010-04-05T14:30:00Z,30.6671,-87.9365,17.83,1111122 
DISL,ioos:station:DISL:MHPA:1,2010-04-05T15:00:00Z,30.6671,-87.9365,20.1,1111122 
DISL,ioos:station:DISL:MHPA:1,2010-04-05T15:30:00Z,30.6671,-87.9365,19.72,1111122 
DISL,ioos:station:DISL:MHPA:1,2010-04-05T16:00:00Z,30.6671,-87.9365,20.56,1111122 
DISL,ioos:station:DISL:MHPA:1,2010-04-05T16:30:00Z,30.6671,-87.9365,20.85,1111122 
DISL,ioos:station:DISL:MHPA:1,2010-04-05T17:00:00Z,30.6671,-87.9365,20.86,1111122 
DISL,ioos:station:DISL:MHPA:1,2010-04-05T17:30:00Z,30.6671,-87.9365,20.67,1111122 
DISL,ioos:station:DISL:MHPA:1,2010-04-05T18:00:00Z,30.6671,-87.9365,19.14,1111122 
DISL,ioos:station:DISL:MHPA:1,2010-04-05T18:30:00Z,30.6671,-87.9365,18.7,1111122 
DISL,ioos:station:DISL:MHPA:1,2010-04-05T19:00:00Z,30.6671,-87.9365,19.19,1111122 
DISL,ioos:station:DISL:MHPA:1,2010-04-05T19:30:00Z,30.6671,-87.9365,19.47,1111122 
DISL,ioos:station:DISL:MHPA:1,2010-04-05T20:00:00Z,30.6671,-87.9365,19.9,1111122 
DISL,ioos:station:DISL:MHPA:1,2010-04-05T20:30:00Z,30.6671,-87.9365,20.41,1111122 
DISL,ioos:station:DISL:MHPA:1,2010-04-05T21:00:00Z,30.6671,-87.9365,20.63,1111122 
DISL,ioos:station:DISL:MHPA:1,2010-04-05T21:30:00Z,30.6671,-87.9365,20.96,1111122 
DISL,ioos:station:DISL:MHPA:1,2010-04-05T22:00:00Z,30.6671,-87.9365,21.14,1111122 
DISL,ioos:station:DISL:MHPA:1,2010-04-05T22:30:00Z,30.6671,-87.9365,21.26,1111122 
DISL,ioos:station:DISL:MHPA:1,2010-04-05T23:00:00Z,30.6671,-87.9365,21.12,1111122 
DISL,ioos:station:DISL:MHPA:1,2010-04-05T23:30:00Z,30.6671,-87.9365,21.04,1111122 
DISL,ioos:station:DISL:MHPA:1,2010-04-06T00:00:00Z,30.6671,-87.9365,20.81,1111122 
DISL,ioos:station:DISL:MHPA:1,2010-04-06T00:30:00Z,30.6671,-87.9365,20.76,1111122 
DISL,ioos:station:DISL:MHPA:1,2010-04-06T01:00:00Z,30.6671,-87.9365,20.72,1111122 
DISL,ioos:station:DISL:MHPA:1,2010-04-06T01:30:00Z,30.6671,-87.9365,19.98,1111122 
DISL,ioos:station:DISL:MHPA:1,2010-04-06T02:00:00Z,30.6671,-87.9365,19.9,1111122 
DISL,ioos:station:DISL:MHPA:1,2010-04-06T02:30:00Z,30.6671,-87.9365,19.29,1111122 
DISL,ioos:station:DISL:MHPA:1,2010-04-06T03:00:00Z,30.6671,-87.9365,18.68,1111122 
DISL,ioos:station:DISL:MHPA:1,2010-04-06T03:30:00Z,30.6671,-87.9365,18.49,1111122 
DISL,ioos:station:DISL:MHPA:1,2010-04-06T04:00:00Z,30.6671,-87.9365,18.22,1111122 
DISL,ioos:station:DISL:MHPA:1,2010-04-06T04:30:00Z,30.6671,-87.9365,18.17,1111122 
DISL,ioos:station:DISL:MHPA:1,2010-04-06T05:00:00Z,30.6671,-87.9365,17.85,1111122 
DISL,ioos:station:DISL:MHPA:1,2010-04-06T05:30:00Z,30.6671,-87.9365,17.78,1111122 
DISL,ioos:station:DISL:MHPA:1,2010-04-06T06:00:00Z,30.6671,-87.9365,17.12,1111122 
DISL,ioos:station:DISL:MHPA:1,2010-04-06T06:30:00Z,30.6671,-87.9365,16.78,1111122 
DISL,ioos:station:DISL:MHPA:1,2010-04-06T07:00:00Z,30.6671,-87.9365,16.06,1111122 
DISL,ioos:station:DISL:MHPA:1,2010-04-06T07:30:00Z,30.6671,-87.9365,16.3,1111122 
DISL,ioos:station:DISL:MHPA:1,2010-04-06T08:00:00Z,30.6671,-87.9365,16.59,1111122 
DISL,ioos:station:DISL:MHPA:1,2010-04-06T08:30:00Z,30.6671,-87.9365,16.76,1111122 
DISL,ioos:station:DISL:MHPA:1,2010-04-06T09:00:00Z,30.6671,-87.9365,16.57,1111122 
DISL,ioos:station:DISL:MHPA:1,2010-04-06T09:30:00Z,30.6671,-87.9365,16.52,1111122 
DISL,ioos:station:DISL:MHPA:1,2010-04-06T10:00:00Z,30.6671,-87.9365,16.12,1111122 
DISL,ioos:station:DISL:MHPA:1,2010-04-06T10:30:00Z,30.6671,-87.9365,15.41,1111122 
DISL,ioos:station:DISL:MHPA:1,2010-04-06T11:00:00Z,30.6671,-87.9365,15.77,1111122 
DISL,ioos:station:DISL:MHPA:1,2010-04-06T11:30:00Z,30.6671,-87.9365,16.1,1111122 
DISL,ioos:station:DISL:MHPA:1,2010-04-06T12:00:00Z,30.6671,-87.9365,16.22,1111122 
DISL,ioos:station:DISL:MHPA:1,2010-04-06T12:30:00Z,30.6671,-87.9365,16.01,1111122 
DISL,ioos:station:DISL:MHPA:1,2010-04-06T13:00:00Z,30.6671,-87.9365,16.07,1111122 
DISL,ioos:station:DISL:MHPA:1,2010-04-06T13:30:00Z,30.6671,-87.9365,17.05,1111122 
DISL,ioos:station:DISL:MHPA:1,2010-04-06T14:00:00Z,30.6671,-87.9365,17.25,1111122 
DISL,ioos:station:DISL:MHPA:1,2010-04-06T14:30:00Z,30.6671,-87.9365,17.96,1111122 
DISL,ioos:station:DISL:MHPA:1,2010-04-06T15:00:00Z,30.6671,-87.9365,19.02,1111122 
DISL,ioos:station:DISL:MHPA:1,2010-04-06T15:30:00Z,30.6671,-87.9365,19.08,1111122 
DISL,ioos:station:DISL:MHPA:1,2010-04-06T16:00:00Z,30.6671,-87.9365,19.55,1111122 
DISL,ioos:station:DISL:MHPA:1,2010-04-06T16:30:00Z,30.6671,-87.9365,19.64,1111122 
DISL,ioos:station:DISL:MHPA:1,2010-04-06T17:00:00Z,30.6671,-87.9365,19.63,1111122 
DISL,ioos:station:DISL:MHPA:1,2010-04-06T17:30:00Z,30.6671,-87.9365,19.81,1111122 
DISL,ioos:station:DISL:MHPA:1,2010-04-06T18:00:00Z,30.6671,-87.9365,19.73,1111122 
DISL,ioos:station:DISL:MHPA:1,2010-04-06T18:30:00Z,30.6671,-87.9365,19.43,1111122 
DISL,ioos:station:DISL:MHPA:1,2010-04-06T19:00:00Z,30.6671,-87.9365,19.69,1111122 
DISL,ioos:station:DISL:MHPA:1,2010-04-06T19:30:00Z,30.6671,-87.9365,20.14,1111122 
DISL,ioos:station:DISL:MHPA:1,2010-04-06T20:00:00Z,30.6671,-87.9365,20.28,1111122 
DISL,ioos:station:DISL:MHPA:1,2010-04-06T20:30:00Z,30.6671,-87.9365,20.58,1111122 
DISL,ioos:station:DISL:MHPA:1,2010-04-06T21:00:00Z,30.6671,-87.9365,20.78,1111122 
DISL,ioos:station:DISL:MHPA:1,2010-04-06T21:30:00Z,30.6671,-87.9365,21.05,1111122 
DISL,ioos:station:DISL:MHPA:1,2010-04-06T22:00:00Z,30.6671,-87.9365,21.25,1111122 
DISL,ioos:station:DISL:MHPA:1,2010-04-06T22:30:00Z,30.6671,-87.9365,21.41,1111122 
DISL,ioos:station:DISL:MHPA:1,2010-04-06T23:00:00Z,30.6671,-87.9365,21.46,1111122 
DISL,ioos:station:DISL:MHPA:1,2010-04-06T23:30:00Z,30.6671,-87.9365,21.73,1111122 